HST 1 20580U 90037B 26248.44239345 .00003983 00000+0 11961-3 0 9993 2 20580 28.4723 251.7153 0001494 318.3786 41.6696 15.31558190800885 POLAR 1 23802U 96013A 26247.37212595 .00000222 00000+0 00000+0 0 9993 2 23802 79.9685 226.1009 6551431 206.3640 95.3413 1.29845782145884 SWAS 1 25560U 98071A 26248.44519697 .00002266 00000+0 14546-3 0 9998 2 25560 69.8968 20.4786 0004005 162.1245 198.0061 15.10036817509385 CXO 1 25867U 99040B 26251.35723568 .00000880 00000+0 00000+0 0 9999 2 25867 57.3547 114.4215 7709509 309.5395 0.4093 0.37806856 17636 XMM-NEWTON 1 25989U 99066A 26249.13213993 .00000135 00000+0 00000+0 0 9994 2 25989 64.0609 281.9381 4652091 63.4934 0.1485 0.50124412 23415 TERRA 1 25994U 99068A 26248.49154654 .00000171 00000+0 43740-4 0 9991 2 25994 97.9385 294.8261 0002078 14.6915 92.4070 14.61155071421333 TIMED 1 26998U 01055B 26247.48734083 .00000578 00000+0 55897-4 0 9990 2 26998 74.0659 75.3297 0002125 245.2606 114.8357 14.95437007342676 CORIOLIS 1 27640U 03001A 26247.96298335 .00000053 00000+0 45395-4 0 9996 2 27640 98.7165 253.6423 0013749 348.0755 12.0094 14.19963958225547 SORCE 1 27651U 03004A 26248.22473614 .00001475 00000+0 11519-3 0 9995 2 27651 39.9902 164.8981 0018875 266.7214 93.1420 15.04068831283951 MOST 1 27843U 03031D 26247.47763573 .00000022 00000+0 29982-4 0 9991 2 27843 98.7080 254.1078 0010380 29.5585 330.6177 14.21336062201975 SCISAT 1 1 27858U 03036A 26248.31350853 .00000325 00000+0 46054-4 0 9994 2 27858 73.9318 12.1275 0006313 50.4590 309.7144 14.81528947243317 SWIFT 1 28485U 04047A 26248.23736096 .00097812 00000+0 52808-3 0 9992 2 28485 20.5517 283.4594 0001230 70.9153 289.1428 15.78369516199481 HINODE (SOLAR-B) 1 29479U 06041A 26248.30594424 .00000325 00000+0 64034-4 0 9995 2 29479 98.0555 263.2824 0018280 37.7079 322.5404 14.68712130 66638 SHIJIAN-6 02A (SJ-6 02A) 1 29505U 06046A 26248.28195294 .00001263 00000+0 66076-4 0 9999 2 29505 97.6302 289.9680 0002246 188.8574 171.2620 15.17717789 84416 SHIJIAN-6 02B (SJ-6 02B) 1 29506U 06046B 26248.31920690 -.00000218 00000+0 -12091-4 0 9999 2 29506 97.7020 276.8431 0016008 154.2823 205.9201 15.01473081 82762 FGRST (GLAST) 1 33053U 08029A 26248.42990898 .00002268 00000+0 76704-4 0 9999 2 33053 25.5836 7.1591 0007913 190.3622 169.6754 15.24307014 7946 SDO 1 36395U 10005A 26248.07462803 -.00000085 00000+0 00000+0 0 9996 2 36395 34.8148 85.1264 0001882 72.4600 111.8032 1.00274707 60864 CRYOSAT 2 1 36508U 10013A 26248.51132337 .00000078 00000+0 18649-4 0 9990 2 36508 92.0295 296.8130 0002523 84.9931 275.1564 14.51903261869731 X-SAT 1 37389U 11015C 26248.53999538 .00000273 00000+0 13333-3 0 9998 2 37389 98.3610 221.7705 0015186 105.2200 255.0661 14.25226617799123 GCOM-W1 (SHIZUKU) 1 38337U 12025A 26248.45484587 .00000237 00000+0 62691-4 0 9990 2 38337 98.2055 187.8036 0001437 88.6833 25.6882 14.57127519760724 NUSTAR 1 38358U 12031A 26248.58335647 -.00000497 00000+0 -82096-4 0 9997 2 38358 6.0257 150.7641 0008743 233.5400 75.1549 15.09465776 1307 NEOSSAT 1 39089U 13009D 26248.41798870 .00000103 00000+0 50397-4 0 9999 2 39089 98.4224 66.5674 0011239 13.6618 346.4870 14.35850396708253 BRITE-AUSTRIA 1 39091U 13009F 26248.44625402 .00000077 00000+0 40827-4 0 9992 2 39091 98.4042 65.9214 0010281 7.5986 352.5354 14.36568643708575 IRIS 1 39197U 13033A 26248.43173269 .00000527 00000+0 66285-4 0 9990 2 39197 97.9289 87.4541 0025635 58.0729 302.2974 14.86022130712291 HISAKI (SPRINT-A) 1 39253U 13049A 26248.03715043 .00000098 00000+0 43977-4 0 9994 2 39253 29.7193 174.0447 0136621 304.1045 54.6631 13.55549952642261 CASSIOPE 1 39265U 13055A 26248.51623422 .00041921 -46232-6 42348-3 0 9991 2 39265 80.9146 328.7536 0272222 150.3602 211.3386 15.30758620679938 STSAT-3 1 39422U 13066G 26248.53831117 .00002238 00000+0 17009-3 0 9991 2 39422 97.6279 217.1745 0010421 117.9728 242.2553 15.03127014696279 SWARM B 1 39451U 13067A 26248.51517326 .00001997 00000+0 69664-4 0 9991 2 39451 87.7455 317.9281 0003347 94.1233 266.0399 15.28995502695517 SWARM A 1 39452U 13067B 26248.49832240 .00007402 00000+0 12870-3 0 9997 2 39452 87.3334 26.3965 0002250 94.2125 265.9393 15.50593615718694 SWARM C 1 39453U 13067C 26248.49821785 .00007523 00000+0 13081-3 0 9999 2 39453 87.3338 24.9790 0002263 94.8522 265.2997 15.50596328718653 BRITE-CA1 (TORONTO) 1 40020U 14033L 26248.34486272 .00000346 00000+0 59567-4 0 9993 2 40020 97.9839 15.8430 0078877 21.2820 339.1638 14.72803513654019 OCO 2 1 40059U 14035A 26248.49812521 .00000205 00000+0 55499-4 0 9997 2 40059 98.2054 188.5811 0001686 84.0821 276.0570 14.57083977647740 BRITE-PL2 (HEWELIUSZ) 1 40119U 14049B 26248.30370602 .00000686 00000+0 68471-4 0 9995 2 40119 97.9153 0.9604 0013457 198.5267 161.5465 14.94828487653410 MMS 1 1 40482U 15011A 26248.58335647 -.00002159 00000+0 00000+0 0 9995 2 40482 72.9378 347.8174 8260476 169.2268 219.4147 0.28352994 1389 MMS 2 1 40483U 15011B 26248.58335647 -.00002160 00000+0 00000+0 0 9998 2 40483 72.9423 347.8162 8263315 169.2284 219.3942 0.28352960 1386 MMS 3 1 40484U 15011C 26248.58335647 -.00002159 00000+0 00000+0 0 9997 2 40484 72.9414 347.8283 8261676 169.2367 219.3685 0.28352878 1383 MMS 4 1 40485U 15011D 26248.58335647 -.00002159 00000+0 00000+0 0 9998 2 40485 72.9353 347.8122 8261736 169.2466 219.3648 0.28352857 1381 ASTROSAT 1 40930U 15052A 26248.27810127 .00001219 00000+0 66501-4 0 9993 2 40930 5.9978 298.8217 0007459 99.6354 260.4617 14.82628544591739 DAMPE 1 41173U 15078A 26248.50091538 .00000568 00000+0 21574-4 0 9991 2 41173 97.4601 254.3870 0012725 143.6427 216.5680 15.30957843596832 PISAT 1 41784U 16059B 26248.44850457 .00000502 00000+0 92957-4 0 9996 2 41784 97.8240 245.4797 0027839 311.2326 48.6481 14.69111196531527 HXMT (HUIYAN) 1 42758U 17034A 26248.50015273 .00002581 00000+0 13073-3 0 9998 2 42758 43.0140 95.6306 0032597 294.0581 65.6859 15.19059303509878 FLYING LAPTOP 1 42831U 17042G 26248.56265825 .00001732 00000+0 13792-3 0 9990 2 42831 97.4992 41.1995 0015832 209.5975 150.4355 15.01553838498514 ZHANGHENG 1-01 (CSES-1) 1 43194U 18015C 26248.53912475 .00004097 00000+0 19021-3 0 9999 2 43194 97.6951 55.8360 0014367 3.1407 356.9915 15.20524734476854 SALSAT 1 46495U 20068K 26248.24542863 .00004576 00000+0 15640-3 0 9990 2 46495 97.8892 256.2611 0010218 31.5733 328.6117 15.30804542327608 IXPE 1 49954U 21121A 26248.58335647 .00007144 00000+0 36231-3 0 9994 2 49954 0.2300 68.9221 0006643 217.2375 35.2249 15.10900825 5788 SMILE 1 69123U 26109A 26245.49484497 .00000789 00000+0 00000+0 0 9999 2 69123 70.0071 206.3893 8202547 285.9518 5.3755 0.47515292 319